Weather reports worldwide

Advertisment
Braemar, United Kingdom (99089): temperature & dewpoint: 18.06.2017 04:00:00 - 24.06.2017 04:00:00 (BST)Braemar, United Kingdom (99089): temperature 5cm: 18.06.2017 04:00:00 - 24.06.2017 04:00:00 (BST)Braemar, United Kingdom (99089): temperature -20cm & temperature -100cm: 18.06.2017 04:00:00 - 24.06.2017 04:00:00 (BST)Braemar, United Kingdom (99089): wind speed: 18.06.2017 04:00:00 - 24.06.2017 04:00:00 (BST)Braemar, United Kingdom (99089): wind direction: 18.06.2017 04:00:00 - 24.06.2017 04:00:00 (BST)Braemar, United Kingdom (99089): visibility: 18.06.2017 04:00:00 - 24.06.2017 04:00:00 (BST)Braemar, United Kingdom (99089): precipitation: 18.06.2017 04:00:00 - 24.06.2017 04:00:00 (BST)
Date & Time tt [°C] td [°C] tt 5cm [°C] tt -20cm [°C] tt -100cm [°C] ff [km/h] ff [kn] dd vv [km] rr [mm]
24.06.2017 04:00:00 - - - - - - - - - 0,0
24.06.2017 03:00:00 9,5 4,2 - - - - - - - 0,0
24.06.2017 02:00:00 9,7 5,0 - - - - - - - 0,0
24.06.2017 01:00:00 9,4 4,3 - - - - - - - 0,0
24.06.2017 00:00:00 9,8 4,4 - - - - - - - 0,0
23.06.2017 23:00:00 10,0 5,1 - - - - - - - 0,0
23.06.2017 22:00:00 10,7 4,7 - - - - - - 10 0,0
23.06.2017 21:00:00 11,4 4,9 - - - - - - - 0,0
23.06.2017 20:00:00 12,2 4,8 - - - - - - - 0,0
23.06.2017 19:00:00 13,0 5,4 - - - - - - - 0,0
23.06.2017 18:00:00 15,0 6,3 - - - - - - - 0,0
23.06.2017 17:00:00 16,0 7,2 - - - - - - - 0,0
23.06.2017 16:00:00 16,2 6,6 - - - - - - - 0,0
23.06.2017 15:00:00 15,9 6,1 - - - - - - - 0,0
23.06.2017 14:00:00 15,2 7,5 - - - - - - - 0,0
23.06.2017 13:00:00 14,6 8,6 - - - - - - - 0,0
23.06.2017 12:00:00 14,5 8,4 - - - - - - - 0,0
23.06.2017 11:00:00 14,4 8,2 - - - - - - - 0,0
23.06.2017 10:00:00 15,2 10,2 - 15,2 12,4 47 25 N 0,1 0,0
23.06.2017 09:00:00 14,5 10,6 - - - - - - - 0,0
23.06.2017 08:00:00 13,4 10,4 - - - - - - - 0,0
23.06.2017 07:00:00 12,7 10,3 - - - - - - - 0,0
23.06.2017 06:00:00 12,3 9,7 - - - - - - - 0,0
23.06.2017 05:00:00 11,7 9,4 - - - - - - - 0,0
23.06.2017 04:00:00 12,2 9,1 - - - - - - - 0,0
23.06.2017 03:00:00 11,7 9,0 - - - - - - - 0,0
23.06.2017 02:00:00 11,4 9,2 - - - - - - - 0,0
23.06.2017 01:00:00 11,0 9,3 - - - - - - - 0,6
23.06.2017 00:00:00 11,2 9,0 - - - - - - - 0,2
22.06.2017 23:00:00 10,8 9,4 - - - - - - - 0,6
22.06.2017 22:00:00 11,8 9,0 - - - - - - - 0,0
22.06.2017 21:00:00 13,3 9,1 - - - - - - - 0,0
22.06.2017 20:00:00 14,2 9,1 - - - - - - - 0,0
22.06.2017 19:00:00 15,6 9,5 - - - - - - - 0,0
22.06.2017 18:00:00 16,5 10,5 - - - - - - - 0,0
22.06.2017 17:00:00 16,6 10,3 - - - - - - - 0,0
22.06.2017 16:00:00 18,5 10,3 - - - - - - - 0,0
22.06.2017 15:00:00 17,9 11,9 - - - - - - - 0,0
22.06.2017 14:00:00 19,1 11,3 - - - - - - - 0,0
22.06.2017 13:00:00 19,0 9,3 - - - - - - - 0,0
22.06.2017 12:00:00 18,7 8,6 - - - - - - - 0,0
22.06.2017 11:00:00 17,8 10,7 - - - - - - - 0,0
22.06.2017 10:00:00 15,7 10,7 - 15,0 12,2 48 26 N 0,9 0,0
22.06.2017 09:00:00 15,1 10,9 - - - - - - - 0,0
22.06.2017 08:00:00 14,1 12,4 - - - - - - - 0,0
22.06.2017 07:00:00 13,5 11,5 - - - - - - - 0,0
22.06.2017 06:00:00 13,5 11,3 - - - - - - - 0,0
22.06.2017 05:00:00 12,7 11,5 - - - - - - - 0,0
22.06.2017 04:00:00 13,9 13,4 - - - - - - - 0,0
22.06.2017 03:00:00 14,5 13,9 - - - - - - - 0,0
22.06.2017 02:00:00 14,9 14,4 - - - - - - - 0,0
22.06.2017 01:00:00 14,6 14,1 - - - - - - - 0,0
22.06.2017 00:00:00 15,1 14,5 - - - - - - - 0,0
21.06.2017 23:00:00 15,3 14,6 - - - - - - - 0,0
21.06.2017 22:00:00 15,4 14,7 - - - - - - - 0,2
21.06.2017 21:00:00 15,5 14,9 - - - - - - - 0,2
21.06.2017 20:00:00 15,3 14,7 - - - - - - - 0,8
21.06.2017 19:00:00 15,1 14,1 - - - - - - - 2,2
21.06.2017 18:00:00 16,6 14,3 - - - - - - - 0,2
21.06.2017 17:00:00 18,7 14,2 - - - - - - - 0,0
21.06.2017 16:00:00 17,9 14,6 - - - - - - - 0,0
21.06.2017 15:00:00 18,1 13,5 - - - - - - - 0,0
21.06.2017 14:00:00 18,1 13,7 - - - - - - - 0,0
21.06.2017 13:00:00 18,1 12,6 - - - - - - - 0,0
21.06.2017 12:00:00 17,9 11,9 - - - - - - - 0,0
21.06.2017 11:00:00 17,0 11,1 - - - - - - - 0,0
21.06.2017 10:00:00 14,5 10,9 14,6 14,7 12,0 43 23 N 65 0,0
21.06.2017 09:00:00 13,2 10,4 - - - - - - - 0,0
21.06.2017 08:00:00 11,9 10,3 - - - - - - - 0,0
21.06.2017 07:00:00 11,3 9,7 - - - - - - - 0,0
21.06.2017 06:00:00 10,6 9,1 - - - - - - - 0,0
21.06.2017 05:00:00 10,5 8,9 - - - - - - - 0,0
21.06.2017 04:00:00 10,5 8,9 - - - - - - - 0,0
21.06.2017 03:00:00 10,4 8,6 - - - - - - - 0,0
21.06.2017 02:00:00 10,4 8,3 - - - - - - - 0,0
21.06.2017 01:00:00 10,6 8,4 - - - - - - - 0,0
21.06.2017 00:00:00 10,6 7,8 - - - - - - - 0,0
20.06.2017 23:00:00 10,8 7,9 - - - - - - - 0,0
20.06.2017 22:00:00 12,1 8,2 - - - - - - - 0,0
20.06.2017 21:00:00 13,6 8,3 - - - - - - - 0,0
20.06.2017 20:00:00 14,9 8,8 - - - - - - - 0,0
20.06.2017 19:00:00 16,6 9,3 - - - - - - - 0,0
20.06.2017 18:00:00 16,7 9,0 - - - - - - - 0,0
20.06.2017 17:00:00 18,1 9,1 - - - - - - - 0,0
20.06.2017 16:00:00 17,7 8,7 - - - - - - - 0,0
20.06.2017 15:00:00 16,9 8,3 - - - - - - - 0,0
20.06.2017 14:00:00 17,5 8,7 - - - - - - - 0,0
20.06.2017 13:00:00 16,2 6,6 - - - - - - - 0,0
20.06.2017 12:00:00 15,6 7,0 - - - - - - - 0,0
20.06.2017 11:00:00 14,5 7,1 - - - - - - - 0,0
20.06.2017 10:00:00 13,6 6,0 13,7 14,7 11,9 122 66 N 1,5 0,0
20.06.2017 09:00:00 12,0 5,6 - - - - - - - 0,0
20.06.2017 08:00:00 9,1 5,7 - - - - - - - 0,0
20.06.2017 07:00:00 6,3 4,4 - - - - - - - 0,0
20.06.2017 06:00:00 2,8 2,1 - - - - - - - 0,0
20.06.2017 05:00:00 2,4 2,0 - - - - - - - 0,0
20.06.2017 04:00:00 2,7 1,8 - - - - - - - 0,0
20.06.2017 03:00:00 4,4 3,3 - - - - - - - -
20.06.2017 02:00:00 5,9 4,1 - - - - - - - 0,0
20.06.2017 01:00:00 6,9 4,7 - - - - - - - 0,0
20.06.2017 00:00:00 9,0 5,5 - - - - - - - 0,0
19.06.2017 23:00:00 9,6 5,5 - - - - - - - 0,0
19.06.2017 22:00:00 11,5 5,9 - - - - - - - 0,0
19.06.2017 21:00:00 13,3 6,5 - - - - - - - 0,0
19.06.2017 20:00:00 15,7 6,3 - - - - - - - 0,0
19.06.2017 19:00:00 17,6 6,5 - - - - - - - 0,0
19.06.2017 18:00:00 17,0 8,2 - - - - - - - 0,0
19.06.2017 17:00:00 16,8 9,5 - - - - - - - 0,0
19.06.2017 16:00:00 16,5 10,4 - - - - - - - 0,0
19.06.2017 15:00:00 17,4 9,6 - - - - - - - 0,0
19.06.2017 14:00:00 17,3 10,6 - - - - - - - 0,0
19.06.2017 13:00:00 17,6 9,6 - - - - - - - 0,0
19.06.2017 12:00:00 18,4 10,1 - - - - - - - 0,0
19.06.2017 11:00:00 16,9 11,6 - - - - - - - 0,0
19.06.2017 10:00:00 17,3 11,7 17,7 15,0 11,5 81 44 N 3,1 0,0
19.06.2017 09:00:00 17,0 11,4 - - - - - - - 0,0
19.06.2017 08:00:00 15,6 13,4 - - - - - - - 0,0
19.06.2017 07:00:00 14,5 13,0 - - - - - - - 0,0
19.06.2017 06:00:00 13,8 13,0 - - - - - - - 0,0
19.06.2017 05:00:00 13,8 13,1 - - - - - - - 0,2
19.06.2017 04:00:00 14,3 12,7 - - - - - - - 0,0
19.06.2017 03:00:00 14,4 12,3 - - - - - - - 0,0
19.06.2017 02:00:00 14,6 11,9 - - - - - - - 0,0
19.06.2017 01:00:00 14,7 12,0 - - - - - - - 0,0
19.06.2017 00:00:00 14,7 11,7 - - - - - - - 0,0
18.06.2017 23:00:00 15,5 11,9 - - - - - - - 0,0
18.06.2017 22:00:00 16,2 12,1 - - - - - - - 0,0
18.06.2017 21:00:00 16,9 12,3 - - - - - - - 0,0
18.06.2017 20:00:00 17,8 12,5 - - - - - - - 0,0
18.06.2017 19:00:00 18,6 12,9 - - - - - - - 0,0
18.06.2017 18:00:00 18,4 12,9 - - - - - - - 0,0
18.06.2017 17:00:00 19,1 13,0 - - - - - - - 0,0
18.06.2017 16:00:00 19,8 12,6 - - - - - - - 0,0
18.06.2017 15:00:00 20,2 13,2 - - - - - - - 0,0
18.06.2017 14:00:00 20,3 12,7 - - - - - - - 0,0
18.06.2017 13:00:00 18,6 12,6 - - - - - - - 0,0
18.06.2017 12:00:00 19,1 12,9 - - - - - - - 0,0
18.06.2017 11:00:00 19,4 13,0 - - - - - - - 0,0
18.06.2017 10:00:00 18,5 13,2 18,5 14,2 11,2 180 97 N 4,4 0,0
18.06.2017 09:00:00 17,9 12,6 - - - - - - - 0,0
18.06.2017 08:00:00 16,8 12,2 - - - - - - - 0,0
18.06.2017 07:00:00 16,5 12,4 - - - - - - - 0,0
18.06.2017 06:00:00 15,1 12,2 - - - - - - - 0,0
18.06.2017 05:00:00 14,9 12,1 - - - - - - - 0,0
18.06.2017 04:00:00 14,9 12,3 - - - - - - - 0,0

tt = temperature
td = dewpoint
tt 5cm = temperature 5cm
tt -20cm = temperature -20cm
tt -100cm = temperature -100cm
ff = wind speed
dd = wind direction
vv = visibility
rr = precipitation

Next stations